EJU616Q LFLL-LFKJ

Flight info

Callsign EJU616Q
Flight time 0h 54m
Altitude 33000
Route ROMAM T43 BEPER DCT RETNO DCT KOLON DCT OMARD M623 VAREK
Aircraft A320/M-SDE3FGHIRWY/LB1

Departure

Time 2026-05-05 01:57
Airport Lyon Saint-Exupéry Airport (LFLL)

Arrival

Time 2026-05-05 02:52
Airport Ajaccio Napoléon Bonaparte airport (LFKJ)
Time Latitude Longitude Altitude Speed Heading
2026-05-05 01:40 45.72184 5.08212 797 ft 0 kts 290°
2026-05-05 01:49 45.72184 5.08213 797 ft 2 kts 290°
2026-05-05 01:50 45.72176 5.08247 797 ft 4 kts 286°
2026-05-05 01:50 45.72167 5.08282 797 ft 4 kts 303°
2026-05-05 01:50 45.72149 5.08307 798 ft 4 kts 349°
2026-05-05 01:50 45.72136 5.08307 798 ft 1 kts 11°
2026-05-05 01:51 45.72135 5.08307 798 ft 0 kts 11°
2026-05-05 01:52 45.72181 5.08317 798 ft 10 kts
2026-05-05 01:53 45.72236 5.08325 798 ft 6 kts 21°
2026-05-05 01:53 45.72268 5.08382 799 ft 11 kts 56°
2026-05-05 01:53 45.72347 5.08416 798 ft 16 kts 359°
2026-05-05 01:53 45.72505 5.08396 796 ft 25 kts 355°
2026-05-05 01:54 45.72663 5.08379 792 ft 23 kts 355°
2026-05-05 01:54 45.72820 5.08356 791 ft 22 kts 355°
2026-05-05 01:54 45.72973 5.08339 789 ft 23 kts 354°
2026-05-05 01:54 45.73139 5.08318 785 ft 25 kts 355°
2026-05-05 01:55 45.73316 5.08293 782 ft 26 kts 354°
2026-05-05 01:55 45.73492 5.08276 780 ft 25 kts 355°
2026-05-05 01:55 45.73648 5.08260 779 ft 19 kts
2026-05-05 01:55 45.73729 5.08381 777 ft 17 kts 88°
2026-05-05 01:56 45.73705 5.08543 776 ft 17 kts 105°
2026-05-05 01:56 45.73668 5.08681 777 ft 13 kts 132°
2026-05-05 01:56 45.73577 5.08724 780 ft 23 kts 171°
2026-05-05 01:56 45.73167 5.08779 790 ft 92 kts 175°
2026-05-05 01:57 45.72333 5.08880 800 ft 145 kts 175°
2026-05-05 01:57 45.71203 5.09005 1030 ft 167 kts 175°
2026-05-05 01:57 45.70068 5.09136 1778 ft 163 kts 175°
2026-05-05 01:57 45.68908 5.09260 2267 ft 176 kts 175°
2026-05-05 01:58 45.67624 5.09415 2621 ft 194 kts 174°
2026-05-05 01:58 45.66202 5.09611 2906 ft 218 kts 173°
2026-05-05 01:58 45.64609 5.09840 3377 ft 235 kts 173°
2026-05-05 01:58 45.62968 5.10059 4211 ft 238 kts 173°
2026-05-05 01:59 45.61326 5.10265 5177 ft 235 kts 174°
2026-05-05 01:59 45.59654 5.10450 5918 ft 245 kts 175°
2026-05-05 01:59 45.57949 5.10649 6805 ft 245 kts 174°
2026-05-05 01:59 45.56245 5.10861 7706 ft 247 kts 176°
2026-05-05 02:00 45.54555 5.11045 8572 ft 248 kts 177°
2026-05-05 02:00 45.52822 5.11213 9398 ft 252 kts 178°
2026-05-05 02:00 45.51058 5.11372 10144 ft 258 kts 179°
2026-05-05 02:00 45.49183 5.11581 10404 ft 282 kts 178°
2026-05-05 02:01 45.47148 5.11842 10625 ft 306 kts 177°
2026-05-05 02:01 45.44958 5.12131 10858 ft 326 kts 176°
2026-05-05 02:01 45.42663 5.12431 11408 ft 335 kts 176°
2026-05-05 02:01 45.40319 5.12731 12100 ft 339 kts 176°
2026-05-05 02:02 45.37956 5.13025 12796 ft 343 kts 176°
2026-05-05 02:02 45.35565 5.13318 13504 ft 347 kts 176°
2026-05-05 02:02 45.33147 5.13610 14150 ft 351 kts 176°
2026-05-05 02:02 45.30704 5.13903 14779 ft 354 kts 177°
2026-05-05 02:03 45.28240 5.14196 15437 ft 357 kts 177°
2026-05-05 02:03 45.25755 5.14493 16093 ft 360 kts 177°
2026-05-05 02:03 45.23252 5.14795 16763 ft 362 kts 177°
2026-05-05 02:03 45.20727 5.15097 17408 ft 365 kts 177°
2026-05-05 02:04 45.18195 5.15400 18039 ft 367 kts 177°
2026-05-05 02:04 45.15632 5.15707 18596 ft 370 kts 177°
2026-05-05 02:04 45.13091 5.16009 19141 ft 372 kts 177°
2026-05-05 02:04 45.10504 5.16319 19708 ft 374 kts 176°
2026-05-05 02:05 45.07903 5.16626 20257 ft 376 kts 176°
2026-05-05 02:05 45.05289 5.16920 20793 ft 378 kts 176°
2026-05-05 02:05 45.02654 5.17207 21329 ft 380 kts 176°
2026-05-05 02:05 45.00003 5.17492 21894 ft 382 kts 176°
2026-05-05 02:06 44.97335 5.17780 22442 ft 385 kts 176°
2026-05-05 02:06 44.94660 5.18072 22990 ft 388 kts 176°
2026-05-05 02:06 44.91955 5.18370 23511 ft 390 kts 176°
2026-05-05 02:06 44.89235 5.18675 23912 ft 392 kts 176°
2026-05-05 02:07 44.86540 5.18977 24286 ft 395 kts 176°
2026-05-05 02:07 44.83789 5.19284 24608 ft 398 kts 176°
2026-05-05 02:07 44.81019 5.19593 24947 ft 401 kts 176°
2026-05-05 02:07 44.78226 5.19906 25296 ft 403 kts 176°
2026-05-05 02:08 44.75424 5.20218 25661 ft 405 kts 176°
2026-05-05 02:08 44.72610 5.20530 26004 ft 407 kts 176°
2026-05-05 02:08 44.69781 5.20844 26350 ft 409 kts 175°
2026-05-05 02:08 44.66971 5.21561 26685 ft 412 kts 165°
2026-05-05 02:09 44.64294 5.23013 27002 ft 416 kts 155°
2026-05-05 02:09 44.61830 5.25199 27315 ft 422 kts 144°
2026-05-05 02:09 44.59685 5.28039 27614 ft 427 kts 135°
2026-05-05 02:09 44.57720 5.31184 27905 ft 429 kts 135°
2026-05-05 02:10 44.55742 5.34334 28181 ft 431 kts 135°
2026-05-05 02:10 44.53755 5.37489 28522 ft 431 kts 135°
2026-05-05 02:10 44.51773 5.40628 28808 ft 431 kts 135°
2026-05-05 02:10 44.49780 5.43779 29052 ft 433 kts 135°
2026-05-05 02:11 44.47780 5.46935 29325 ft 434 kts 135°
2026-05-05 02:11 44.45777 5.50095 29666 ft 434 kts 135°
2026-05-05 02:11 44.43777 5.53249 30006 ft 434 kts 135°
2026-05-05 02:11 44.41767 5.56413 30313 ft 433 kts 135°
2026-05-05 02:12 44.39789 5.59520 30651 ft 433 kts 135°
2026-05-05 02:12 44.36121 5.66216 31325 ft 436 kts 128°
2026-05-05 02:12 44.34436 5.69710 31622 ft 435 kts 128°
2026-05-05 02:13 44.32742 5.73212 31908 ft 435 kts 128°
2026-05-05 02:13 44.31046 5.76707 32226 ft 433 kts 128°
2026-05-05 02:13 44.29354 5.80182 32528 ft 433 kts 128°
2026-05-05 02:13 44.27663 5.83648 32828 ft 432 kts 128°
2026-05-05 02:14 44.25967 5.87115 32946 ft 434 kts 128°
2026-05-05 02:14 44.23096 5.92984 32964 ft 439 kts 128°
2026-05-05 02:15 44.19685 5.99973 32963 ft 439 kts 128°
2026-05-05 02:15 44.16236 6.07013 32966 ft 439 kts 128°
2026-05-05 02:16 44.12788 6.14019 32973 ft 437 kts 128°
2026-05-05 02:16 44.09352 6.20996 32968 ft 437 kts 128°
2026-05-05 02:17 44.05914 6.27948 32969 ft 436 kts 128°
2026-05-05 02:17 44.02467 6.34900 32948 ft 437 kts 128°
2026-05-05 02:18 43.99014 6.41863 32956 ft 438 kts 128°
2026-05-05 02:18 43.95548 6.48836 32955 ft 439 kts 129°
2026-05-05 02:19 43.92081 6.55780 32976 ft 440 kts 129°
2026-05-05 02:19 43.88586 6.62760 32973 ft 440 kts 129°
2026-05-05 02:20 43.85095 6.69729 32974 ft 440 kts 129°
2026-05-05 02:20 43.81606 6.76686 32963 ft 441 kts 129°
2026-05-05 02:21 43.78090 6.83657 32955 ft 442 kts 129°
2026-05-05 02:21 43.74566 6.90633 32947 ft 442 kts 129°
2026-05-05 02:22 43.70577 6.96977 32958 ft 434 kts 143°
2026-05-05 02:22 43.65789 7.02011 32966 ft 433 kts 146°
2026-05-05 02:23 43.60986 7.07021 32959 ft 432 kts 146°
2026-05-05 02:23 43.56178 7.12040 32946 ft 434 kts 146°
2026-05-05 02:24 43.51380 7.17041 32942 ft 436 kts 146°
2026-05-05 02:24 43.46530 7.22069 32942 ft 437 kts 146°
2026-05-05 02:25 43.41661 7.27097 32940 ft 437 kts 147°
2026-05-05 02:25 43.36781 7.32123 32921 ft 440 kts 147°
2026-05-05 02:26 43.31867 7.37182 32920 ft 442 kts 147°
2026-05-05 02:26 43.26942 7.42253 32919 ft 443 kts 147°
2026-05-05 02:27 43.22031 7.47292 32923 ft 444 kts 147°
2026-05-05 02:27 43.17073 7.52366 32919 ft 445 kts 147°
2026-05-05 02:28 43.12115 7.57397 32914 ft 445 kts 150°
2026-05-05 02:28 43.06610 7.61032 32907 ft 438 kts 164°
2026-05-05 02:29 43.00876 7.63869 32906 ft 438 kts 164°
2026-05-05 02:29 42.95137 7.66733 32912 ft 439 kts 165°
2026-05-05 02:30 42.89426 7.69577 32915 ft 440 kts 165°
2026-05-05 02:30 42.83660 7.72426 32593 ft 442 kts 165°
2026-05-05 02:30 42.80768 7.73851 32331 ft 442 kts 165°
2026-05-05 02:31 42.77866 7.75278 32072 ft 443 kts 165°
2026-05-05 02:31 42.74964 7.76703 31803 ft 444 kts 165°
2026-05-05 02:31 42.72056 7.78130 31547 ft 445 kts 165°
2026-05-05 02:31 42.69142 7.79564 31302 ft 446 kts 165°
2026-05-05 02:32 42.66223 7.81005 31054 ft 447 kts 165°
2026-05-05 02:32 42.63301 7.82447 30589 ft 447 kts 165°
2026-05-05 02:32 42.60377 7.83883 29342 ft 445 kts 165°
2026-05-05 02:32 42.57486 7.85303 28173 ft 436 kts 165°
2026-05-05 02:33 42.54672 7.86686 27351 ft 422 kts 165°
2026-05-05 02:33 42.51947 7.88024 26745 ft 415 kts 165°
2026-05-05 02:33 42.49235 7.89345 26067 ft 413 kts 165°
2026-05-05 02:33 42.46549 7.90652 25423 ft 410 kts 164°
2026-05-05 02:34 42.43851 7.91960 24769 ft 411 kts 164°
2026-05-05 02:34 42.41201 7.93244 24138 ft 409 kts 164°
2026-05-05 02:34 42.38527 7.94544 23495 ft 408 kts 164°
2026-05-05 02:34 42.35873 7.95837 22998 ft 401 kts 164°
2026-05-05 02:35 42.33284 7.97162 22507 ft 396 kts 160°
2026-05-05 02:35 42.30861 7.98945 21972 ft 398 kts 150°
2026-05-05 02:35 42.28685 8.01244 21320 ft 395 kts 142°
2026-05-05 02:35 42.26662 8.03730 20467 ft 391 kts 142°
2026-05-05 02:36 42.24653 8.06203 19929 ft 390 kts 142°
2026-05-05 02:36 42.22650 8.08665 19412 ft 390 kts 142°
2026-05-05 02:36 42.20647 8.11122 18881 ft 388 kts 142°
2026-05-05 02:36 42.18653 8.13564 18388 ft 386 kts 142°
2026-05-05 02:37 42.16669 8.15989 17847 ft 384 kts 142°
2026-05-05 02:37 42.14702 8.18394 17356 ft 380 kts 142°
2026-05-05 02:37 42.12751 8.20780 16880 ft 376 kts 142°
2026-05-05 02:37 42.10863 8.23090 16430 ft 360 kts 142°
2026-05-05 02:38 42.09021 8.25339 15858 ft 356 kts 142°
2026-05-05 02:38 42.07188 8.27568 15369 ft 354 kts 142°
2026-05-05 02:38 42.05364 8.29780 14874 ft 352 kts 143°
2026-05-05 02:38 42.03548 8.31980 14345 ft 350 kts 143°
2026-05-05 02:39 42.01764 8.34139 13846 ft 350 kts 143°
2026-05-05 02:39 41.99946 8.36339 13264 ft 351 kts 142°
2026-05-05 02:39 41.98141 8.38500 12949 ft 338 kts 145°
2026-05-05 02:39 41.96250 8.40232 12353 ft 322 kts 156°
2026-05-05 02:40 41.94253 8.41367 12077 ft 298 kts 168°
2026-05-05 02:40 41.92313 8.41986 11793 ft 278 kts 176°
2026-05-05 02:40 41.90419 8.42181 11282 ft 269 kts 185°
2026-05-05 02:40 41.88565 8.42055 10797 ft 263 kts 188°
2026-05-05 02:41 41.86725 8.41910 10710 ft 268 kts 188°
2026-05-05 02:41 41.84868 8.41767 10588 ft 267 kts 188°
2026-05-05 02:41 41.83013 8.41626 10466 ft 267 kts 188°
2026-05-05 02:41 41.81162 8.41489 10344 ft 266 kts 188°
2026-05-05 02:42 41.79340 8.41357 10226 ft 266 kts 187°
2026-05-05 02:42 41.77496 8.41225 10107 ft 265 kts 187°
2026-05-05 02:42 41.75653 8.41090 9986 ft 265 kts 187°
2026-05-05 02:42 41.73803 8.40955 9647 ft 268 kts 187°
2026-05-05 02:43 41.71975 8.40822 9465 ft 252 kts 188°
2026-05-05 02:43 41.70306 8.40703 9336 ft 234 kts 188°
2026-05-05 02:43 41.68710 8.40606 9044 ft 228 kts 184°
2026-05-05 02:43 41.67134 8.40948 8621 ft 233 kts 168°
2026-05-05 02:44 41.65655 8.41887 8165 ft 239 kts 152°
2026-05-05 02:44 41.64393 8.43364 7738 ft 244 kts 136°
2026-05-05 02:44 41.63464 8.45284 7321 ft 250 kts 118°
2026-05-05 02:44 41.62995 8.47534 6939 ft 254 kts 98°
2026-05-05 02:45 41.63080 8.49890 6552 ft 255 kts 78°
2026-05-05 02:45 41.63729 8.52086 6076 ft 255 kts 57°
2026-05-05 02:45 41.64735 8.54027 5657 ft 254 kts 53°
2026-05-05 02:45 41.65741 8.55940 5156 ft 259 kts 53°
2026-05-05 02:46 41.66794 8.57948 4625 ft 264 kts 54°
2026-05-05 02:46 41.67812 8.59895 4433 ft 244 kts 54°
2026-05-05 02:46 41.68738 8.61670 4326 ft 224 kts 54°
2026-05-05 02:46 41.69617 8.63351 4297 ft 218 kts 54°
2026-05-05 02:47 41.70481 8.65005 4138 ft 216 kts 55°
2026-05-05 02:47 41.71368 8.66623 4031 ft 214 kts 47°
2026-05-05 02:47 41.72507 8.67863 3993 ft 211 kts 26°
2026-05-05 02:47 41.73829 8.68729 3778 ft 211 kts 21°
2026-05-05 02:48 41.75160 8.69543 3501 ft 209 kts 22°
2026-05-05 02:48 41.76479 8.70356 3231 ft 209 kts 22°
2026-05-05 02:48 41.77792 8.71169 2951 ft 208 kts 21°
2026-05-05 02:48 41.79104 8.71982 2668 ft 207 kts 22°
2026-05-05 02:49 41.80393 8.72784 2380 ft 198 kts 21°
2026-05-05 02:49 41.81602 8.73536 2135 ft 186 kts 22°
2026-05-05 02:49 41.82723 8.74231 1898 ft 171 kts 23°
2026-05-05 02:49 41.83789 8.74893 1690 ft 167 kts 24°
2026-05-05 02:50 41.84838 8.75544 1454 ft 165 kts 23°
2026-05-05 02:50 41.85864 8.76181 1242 ft 160 kts 24°
2026-05-05 02:50 41.86857 8.76799 1032 ft 154 kts 23°
2026-05-05 02:50 41.87825 8.77401 818 ft 153 kts 25°
2026-05-05 02:51 41.88782 8.77996 615 ft 151 kts 25°
2026-05-05 02:51 41.89723 8.78581 413 ft 147 kts 25°
2026-05-05 02:51 41.90640 8.79152 207 ft 144 kts 26°
2026-05-05 02:51 41.91535 8.79705 34 ft 137 kts 27°
2026-05-05 02:52 41.92304 8.80210 20 ft 95 kts 25°
2026-05-05 02:52 41.92615 8.80392 29 ft 32 kts 22°
2026-05-05 02:52 41.92752 8.80438 27 ft 16 kts 333°
2026-05-05 02:52 41.92807 8.80322 28 ft 14 kts 297°
2026-05-05 02:53 41.92811 8.80207 27 ft 13 kts 231°
2026-05-05 02:53 41.92743 8.80140 31 ft 12 kts 214°
2026-05-05 02:53 41.92670 8.80084 26 ft 15 kts 203°
2026-05-05 02:53 41.92546 8.80010 29 ft 21 kts 205°
2026-05-05 02:54 41.92405 8.79923 28 ft 23 kts 205°
2026-05-05 02:54 41.92256 8.79831 28 ft 20 kts 205°
2026-05-05 02:54 41.92143 8.79761 30 ft 17 kts 205°
2026-05-05 02:54 41.92048 8.79701 26 ft 13 kts 205°
2026-05-05 02:55 41.91970 8.79651 27 ft 12 kts 205°
2026-05-05 02:55 41.91900 8.79609 29 ft 9 kts 205°
2026-05-05 02:55 41.91879 8.79564 26 ft 5 kts 278°
2026-05-05 02:55 41.91895 8.79546 30 ft 1 kts 334°
2026-05-05 02:56 41.91898 8.79544 29 ft 0 kts 337°